Home   Weather   Kãnpur   Past weeks

Flag for India Past Weather in Kãnpur, Uttar Pradesh, India — Yesterday and Last 2 Weeks

Now
59 °F

Fog.


Feels Like: 59 °F
Forecast: 53 / 75 °F
Wind: No wind

Location: Lucknow / Amausi

Current Time: Dec 6, 2016 at 7:51:44 pm

Latest Report: Dec 6, 2016 at 7:00 pm


Visibility: 0 mi

Pressure: 30.04 "Hg

Humidity: 94%

Dew Point: 57 °F

Location of KãnpurLocation

Past Weather in Kãnpur — Graph

°F

Kãnpur Temperature Yesterday

Maximum temperature yesterday: 70 °F (at 3:00 pm)
Minimum temperature yesterday: 50 °F (at 2:00 am)
Average temperature yesterday: 57 °F

High & Low Weather Summary for the Past Weeks

 TemperatureHumidityPressure
High86 °F (Nov 22, 1:00 pm)100% (Nov 22, 7:30 am)30.18 "Hg (Nov 22, 7:30 am)
Low50 °F (Dec 5, 2:00 am)27% (Nov 22, 1:30 pm)29.71 "Hg (Dec 2, 8:00 pm)
Average66 °F77%29.95 "Hg
* Reported Nov 21 6:30 pm — Dec 6 6:30 pm, Kãnpur, Weather by CustomWeather, © 2016

Note: Actual official high and low records may vary slightly from our data, if they occured in-between our weather recording intervals... More about our weather records

Advertising

Kãnpur Weather History for the Previous 24 Hours

Scroll right to see more
 ConditionsComfort  
Time TempWeatherWind HumidityBarometerVisibility
6:30 pm
Tue, Dec 6
59 °FFog.No wind100%30.04 "Hg1 mi
6:00 pm59 °FFog.No wind100%30.04 "Hg1 mi
5:30 pm59 °FFog.No wind100%30.01 "Hg1 mi
5:00 pm61 °FFog.No wind94%30.01 "Hg1 mi
4:30 pm61 °FFog.No wind94%30.01 "Hg1 mi
4:00 pm61 °FFog.No wind94%30.01 "Hg1 mi
3:30 pm63 °FFog.No wind88%30.01 "Hg1 mi
3:00 pm63 °FFog.No wind88%30.01 "Hg1 mi
2:30 pm63 °FFog.No wind88%30.01 "Hg1 mi
2:00 pm61 °FFog.No wind94%30.01 "Hg1 mi
1:30 pm61 °FFog.No wind100%30.04 "Hg1 mi
1:00 pm59 °FFog.No wind100%30.04 "Hg1 mi
12:30 pm59 °FFog.No wind100%30.07 "Hg1 mi
12:00 pm57 °FFog.No wind100%30.07 "Hg1 mi
11:30 am57 °FFog.No wind100%30.09 "Hg1 mi
11:00 am57 °FFog.No wind94%30.09 "Hg0 mi
10:30 am57 °FFog.No wind94%30.12 "Hg0 mi
9:30 am55 °FFog.No wind100%30.12 "Hg0 mi
9:00 am55 °FFog.No wind100%30.12 "Hg0 mi
8:00 am55 °FFog.No wind100%30.09 "Hg0 mi
7:30 am55 °FFog.No wind100%30.09 "Hg0 mi
7:00 am55 °FFog.No wind100%30.07 "Hg0 mi
6:00 am55 °FFog.No wind100%30.07 "Hg0 mi
5:30 am55 °FFog.No wind100%30.04 "Hg0 mi
5:00 am55 °FFog.No wind100%30.04 "Hg0 mi
4:00 am55 °FFog.No wind100%30.04 "Hg0 mi
3:00 am55 °FFog.No wind100%30.04 "Hg0 mi
1:00 am55 °FFog.No wind100%30.04 "Hg0 mi
12:00 am55 °FFog.No wind94%30.04 "Hg0 mi
11:00 pm
Mon, Dec 5
57 °FClear.No wind94%30.04 "Hg0 mi
10:00 pm57 °FFog.2 mph94%30.04 "Hg1 mi
9:00 pm57 °FFog.2 mph94%30.04 "Hg1 mi
8:30 pm59 °FFog.2 mph88%30.04 "Hg1 mi
8:00 pm59 °FFog.No wind94%30.04 "Hg1 mi
7:30 pm59 °FFog.No wind94%30.04 "Hg1 mi
7:00 pm61 °FFog.2 mph88%30.01 "Hg1 mi
Weather by CustomWeather, © 2016

See weather overviewHow to use our weather pages